Weather History for PAED - January, 2013

Change the Weather History Date:

Sunday, January 27, 2013

  Actual Average Record
Temperature  
Mean Temperature -9 °F -  
Max Temperature 1 °F 18 °F 46 °F (2014)
Min Temperature -19 °F 5 °F -26 °F (1989)
Degree Days  
Heating Degree Days 74    
Moisture  
Dew Point -18 °F    
Average Humidity 63    
Maximum Humidity 79    
Minimum Humidity 38    
Precipitation  
Precipitation 0.00 in - - ()
Sea Level Pressure  
Sea Level Pressure 30.04 in    
Wind  
Wind Speed 4 mph (ENE)    
Max Wind Speed 12 mph    
Max Gust Speed -    
Visibility 10 miles    
Events      
Averages and records for this station are not official NWS values.
T = Trace of Precipitation, MM = Missing Value Source: NWS Daily Summary

Daily Weather History Graph

Daily Weather History Graph

Search for Another Location

Airport or City:

Trip Planner

Search our weather history database for the weather conditions in past years. The results will help you decide how hot, cold, wet, or windy it might be!

Date:

Astronomy

Jan. 27, 2013 Rise Set
Actual Time 9:31 AM AKST 4:53 PM AKST
Civil Twilight 8:39 AM AKST 5:45 PM AKST
Nautical Twilight 7:45 AM AKST 6:39 PM AKST
Astronomical Twilight 6:55 AM AKST 7:30 PM AKST
Moon 6:33 PM AKST 8:59 AM AKST
Length of Visible Light 9h 05m
Length of Day
7h 22m
Full, 100% of the Moon is Illuminated
Jan 27
Full
Feb 3
Last Quarter
Feb 9
New
Feb 17
First Quarter
Feb 25
Full

Hourly Weather History & Observations

Time (AKST) Temp. Windchill Dew Point Humidity Pressure Visibility Wind Dir Wind Speed Gust Speed Precip Events Conditions
12:55 AM -13.5 °F - -19.3 °F 75% 29.91 in 10.0 mi Calm Calm - N/A   Clear
1:55 AM -13.7 °F -25.9 °F -19.8 °F 74% 29.93 in 10.0 mi ESE 4.6 mph - N/A   Clear
2:55 AM -15.3 °F - -21.3 °F 75% 29.94 in 10.0 mi Calm Calm - N/A   Clear
3:55 AM -13.2 °F - -18.6 °F 77% 29.96 in 10.0 mi Calm Calm - N/A   Clear
4:55 AM -15.9 °F -32.1 °F -22.2 °F 73% 29.97 in 10.0 mi East 6.9 mph - N/A   Partly Cloudy
5:38 AM -13.0 °F -25.1 °F -18.4 °F 77% 29.98 in 10.0 mi East 4.6 mph - N/A   Partly Cloudy
5:53 AM -9.4 °F -20.9 °F -14.8 °F 77% 29.99 in 10.0 mi East 4.6 mph - N/A   Scattered Clouds
5:55 AM -8.7 °F -20.0 °F -13.7 °F 79% 29.98 in 10.0 mi East 4.6 mph - N/A   Scattered Clouds
5:58 AM -7.6 °F -18.8 °F -13.0 °F 77% 29.98 in 9.0 mi East 4.6 mph - N/A   Scattered Clouds
6:55 AM -12.3 °F - -18.4 °F 74% 29.99 in 10.0 mi Calm Calm - N/A   Partly Cloudy
7:55 AM -14.3 °F -24.1 °F -20.4 °F 74% 30.00 in 4.0 mi East 3.5 mph - N/A   Haze
8:55 AM -19.3 °F -29.9 °F -25.8 °F 72% 30.01 in 10.0 mi East 3.5 mph - N/A   Clear
9:55 AM -16.8 °F -29.5 °F -23.1 °F 73% 30.04 in 10.0 mi SE 4.6 mph - N/A   Clear
10:55 AM -13.5 °F -25.7 °F -19.3 °F 75% 30.06 in 10.0 mi East 4.6 mph - N/A   Clear
11:55 AM -9.6 °F - -15.3 °F 76% 30.07 in 10.0 mi Calm Calm - N/A   Clear
12:55 PM -0.8 °F -17.2 °F -16.2 °F 48% 30.07 in 10.0 mi NE 10.4 mph - N/A   Clear
1:55 PM 0.1 °F -14.0 °F -16.2 °F 46% 30.08 in 10.0 mi ENE 8.1 mph - N/A   Clear
2:55 PM 1.6 °F -14.2 °F -18.9 °F 38% 30.09 in 10.0 mi NE 10.4 mph - N/A   Clear
3:55 PM 1.6 °F -12.2 °F -18.9 °F 38% 30.09 in 10.0 mi ENE 8.1 mph - N/A   Clear
4:55 PM 0.3 °F -11.2 °F -18.8 °F 40% 30.10 in 10.0 mi Variable 5.8 mph - N/A   Clear
5:55 PM -0.4 °F -16.7 °F -17.9 °F 44% 30.10 in 10.0 mi East 10.4 mph - N/A   Clear
6:55 PM -0.9 °F -15.3 °F -16.1 °F 49% 30.12 in 10.0 mi NNE 8.1 mph - N/A   Clear
7:55 PM -1.7 °F -18.3 °F -16.4 °F 50% 30.13 in 10.0 mi NE 10.4 mph - N/A   Clear
8:55 PM -2.9 °F -17.7 °F -15.3 °F 55% 30.13 in 10.0 mi NNE 8.1 mph - N/A   Clear
9:55 PM -2.7 °F -20.5 °F -15.9 °F 54% 30.13 in 10.0 mi NE 11.5 mph - N/A   Clear
10:55 PM -2.0 °F -19.6 °F -16.4 °F 50% 30.15 in 10.0 mi ENE 11.5 mph - N/A   Clear
11:55 PM -2.2 °F -18.0 °F -17.3 °F 49% 30.16 in 10.0 mi NE 9.2 mph - N/A   Clear